Warrenton, OR

12:09 AM PDT on September 29, 2016 (GMT -0700)
Astoria Regional

Weather History for KAST - August, 2014

Change the Weather History Date:

Friday, August 8, 2014

  Actual Average Record
Temperature  
Mean Temperature 64 °F 61 °F  
Max Temperature 69 °F 69 °F 92 °F (1939)
Min Temperature 58 °F 54 °F 45 °F (1988)
Degree Days  
Heating Degree Days 1 4  
Month to date heating degree days 10 32  
Since 1 June heating degree days 295 424  
Since 1 July heating degree days 115 182  
Cooling Degree Days 0 0  
Month to date cooling degree days 1 0  
Year to date cooling degree days 20 3  
Since 1 June cooling degree days 9 3  
Growing Degree Days 14 (Base 50)    
Moisture  
Dew Point 55 °F    
Average Humidity 74    
Maximum Humidity 87    
Minimum Humidity 61    
Precipitation  
Precipitation 0.00 in 0.03 in 1.27 in (1994)
Month to date precipitation 0.02 0.20  
Year to date precipitation 41.63 37.14  
Sea Level Pressure  
Sea Level Pressure 30.14 in    
Wind  
Wind Speed 11 mph (NW)    
Max Wind Speed 17 mph    
Max Gust Speed 21 mph    
Visibility 10 miles    
Events      
T = Trace of Precipitation, MM = Missing Value Source: NWS Daily Summary

Daily Weather History Graph

Daily Weather History Graph

Search for Another Location

Airport or City:

Trip Planner

Search our weather history database for the weather conditions in past years. The results will help you decide how hot, cold, wet, or windy it might be!

Date:

Astronomy

Aug. 08, 2014 Rise Set
Actual Time 6:06 AM PDT 8:35 PM PDT
Civil Twilight 5:32 AM PDT 9:08 PM PDT
Nautical Twilight 4:50 AM PDT 9:50 PM PDT
Astronomical Twilight 4:01 AM PDT 10:38 PM PDT
Moon 6:52 PM PDT (8/8) 3:42 AM PDT (8/8)
Length of Visible Light 15h 36m
Length of Day
14h 29m
Waxing Gibbous, 94% of the Moon is Illuminated
Aug 8
Waxing Gibbous
Aug 10
Full
Aug 17
Last Quarter
Aug 25
New
Sep 2
First Quarter

Hourly Weather History & Observations

Time (PDT) Temp. Dew Point Humidity Pressure Visibility Wind Dir Wind Speed Gust Speed Precip Events Conditions
12:55 AM 60.1 °F 54.0 °F 80% 30.11 in 10.0 mi NNW 11.5 mph - N/A   Overcast
1:55 AM 61.0 °F 55.0 °F 81% 30.11 in 10.0 mi NNW 11.5 mph - N/A   Overcast
2:55 AM 61.0 °F 55.0 °F 81% 30.11 in 10.0 mi NNW 10.4 mph - N/A   Overcast
3:55 AM 60.1 °F 53.1 °F 78% 30.11 in 10.0 mi NW 15.0 mph - N/A   Overcast
4:55 AM 60.1 °F 54.0 °F 80% 30.11 in 10.0 mi NW 11.5 mph - N/A   Overcast
5:28 AM 59.0 °F 53.1 °F 81% 30.11 in 10.0 mi NNW 12.7 mph - N/A   Scattered Clouds
5:55 AM 59.0 °F 53.1 °F 81% 30.12 in 10.0 mi NW 8.1 mph - N/A   Partly Cloudy
6:20 AM 60.1 °F 54.0 °F 80% 30.12 in 10.0 mi NW 10.4 mph - N/A   Mostly Cloudy
6:55 AM 60.1 °F 55.0 °F 83% 30.13 in 10.0 mi NNW 12.7 mph - N/A   Overcast
7:55 AM 61.0 °F 54.0 °F 78% 30.14 in 10.0 mi NNW 10.4 mph - N/A   Overcast
8:55 AM 62.1 °F 55.0 °F 78% 30.14 in 10.0 mi NNW 6.9 mph - N/A   Overcast
9:55 AM 62.1 °F 55.0 °F 78% 30.15 in 10.0 mi NW 9.2 mph 18.4 mph N/A   Overcast
10:55 AM 64.0 °F 55.0 °F 73% 30.16 in 10.0 mi NNW 9.2 mph - N/A   Overcast
11:24 AM 66.0 °F 55.9 °F 70% 30.16 in 10.0 mi NW 13.8 mph - N/A   Mostly Cloudy
11:55 AM 66.0 °F 55.0 °F 68% 30.16 in 10.0 mi NW 12.7 mph - N/A   Overcast
12:55 PM 66.0 °F 55.0 °F 68% 30.16 in 10.0 mi NW 11.5 mph - N/A   Overcast
1:10 PM 64.9 °F 55.9 °F 73% 30.16 in 10.0 mi NW 12.7 mph - N/A   Overcast
1:20 PM 66.0 °F 55.9 °F 70% 30.16 in 10.0 mi NW 12.7 mph - N/A   Overcast
1:55 PM 66.9 °F 55.9 °F 68% 30.16 in 10.0 mi NW 16.1 mph - N/A   Mostly Cloudy
2:55 PM 69.1 °F 55.0 °F 61% 30.15 in 10.0 mi NW 12.7 mph - N/A   Clear
3:55 PM 68.0 °F 55.9 °F 65% 30.15 in 10.0 mi NW 15.0 mph - N/A   Scattered Clouds
4:55 PM 68.0 °F 55.9 °F 65% 30.14 in 10.0 mi NW 13.8 mph - N/A   Clear
5:55 PM 66.9 °F 55.9 °F 68% 30.14 in 10.0 mi NW 11.5 mph - N/A   Clear
6:55 PM 64.9 °F 54.0 °F 68% 30.13 in 10.0 mi NW 12.7 mph - N/A   Clear
7:55 PM 64.0 °F 55.0 °F 73% 30.13 in 10.0 mi NNW 12.7 mph - N/A   Clear
8:55 PM 61.0 °F 55.0 °F 81% 30.13 in 10.0 mi NW 12.7 mph - N/A   Clear
9:55 PM 60.8 °F 55.4 °F 82% 30.13 in 10.0 mi NW 9.2 mph - N/A   Scattered Clouds
10:55 PM 60.1 °F 55.9 °F 86% 30.14 in 10.0 mi NW 10.4 mph - N/A   Scattered Clouds
11:15 PM 60.1 °F 55.9 °F 86% 30.13 in 10.0 mi NW 10.4 mph - N/A   Mostly Cloudy
11:55 PM 59.0 °F 55.0 °F 87% 30.14 in 10.0 mi NW 10.4 mph - N/A   Mostly Cloudy